Flag for U.S.A. Weather past 2 weeks in Charleston, West Virginia, U.S.A.

Now
80 °F

Passing clouds.


Feels Like: 80 °F
Forecast: 50 / 88 °F
Wind: 8 mph from Southwest

Location: Yeager Airport

Current Time: May 24, 2015 at 1:42:52 PM

Latest Report: May 24, 2015 at 12:54 PM


Visibility: 10 mi

Pressure: 30.29 "Hg

Humidity: 38%

Dew point: 52 °F

Location of CharlestonLocation

Historic Weather in Charleston — Graph

°F

Charleston temperature yesterday

Maximum temperature yesterday: 78 °F (at 4:54 PM)
Minimum temperature yesterday: 47 °F (at 6:54 AM)
Average temperature yesterday: 62 °F

Past Weeks' High & Low Weather Summary

 TemperatureHumidityPressure
High89 °F (May 9, 5:54 PM)100% (May 17, 3:56 AM)30.42 "Hg (May 17, 3:56 AM)
Low43 °F (May 14, 5:54 AM)27% (May 9, 6:54 PM)29.87 "Hg (May 21, 2:54 AM)
Average66 °F69%30.14 "Hg
* Reported May 9 11:54 AM — May 24 11:54 AM, Charleston, Weather by CustomWeather, © 2015

Note: Actual official high and low records may vary slightly from our data, if they occured in-between our weather recording intervals... More about our weather records

Advertising

Charleston weather history for previous 24 hours

 ConditionsComfort  
Time TempWeatherWind HumidityBarometerVisibility
11:54 AM
Sun, May 24
77 °FPassing clouds.5 mph40%30.32 "Hg10 mi
10:54 AM75 °FPassing clouds.5 mph47%30.32 "Hg10 mi
9:54 AM67 °FPassing clouds.No wind61%30.33 "Hg10 mi
8:54 AM59 °FPassing clouds.No wind75%30.34 "Hg10 mi
7:54 AM53 °FPassing clouds.No wind89%30.33 "Hg10 mi
6:54 AM50 °FPassing clouds.No wind93%30.32 "Hg10 mi
5:54 AM49 °FPassing clouds.No wind97%30.30 "Hg10 mi
4:54 AM50 °FPassing clouds.No wind96%30.30 "Hg10 mi
3:54 AM50 °FClear.No wind96%30.29 "Hg10 mi
2:54 AM51 °FClear.No wind92%30.29 "Hg10 mi
1:54 AM52 °FClear.3 mph93%30.30 "Hg10 mi
12:54 AM54 °FClear.No wind90%30.31 "Hg10 mi
11:54 PM
Sat, May 23
56 °FClear.No wind84%30.32 "Hg10 mi
10:54 PM58 °FClear.No wind78%30.31 "Hg10 mi
9:54 PM63 °FClear.No wind65%30.30 "Hg10 mi
8:54 PM65 °FPassing clouds.No wind61%30.30 "Hg10 mi
7:54 PM74 °FPassing clouds.No wind36%30.31 "Hg10 mi
6:54 PM77 °FScattered clouds.5 mph29%30.31 "Hg10 mi
5:54 PM78 °FScattered clouds.3 mph29%30.32 "Hg10 mi
4:54 PM78 °FScattered clouds.3 mph30%30.33 "Hg10 mi
3:54 PM77 °FScattered clouds.7 mph29%30.34 "Hg10 mi
2:54 PM76 °FScattered clouds.6 mph30%30.36 "Hg10 mi
1:54 PM74 °FScattered clouds.6 mph38%30.37 "Hg10 mi
Weather by CustomWeather, © 2015

See weather overviewHow to use our weather pages